FW4335 Weather Reports


Display with metric or nautical units.
time (UTC)temp
F
wind
direction
speed
MPH
gust
MPH
rain 1hr
in
rain 24hr
in
rain mn
in
humidity
%
barometer
mb
20260508151535 56 126 0.0 7.0 0.00 0.00 0.00 75 1021.2
20260508150109 54 125 1.0 2.0 0.00 0.00 0.00 81 1021.1
20260508144534 51 189 0.0 3.0 0.00 0.00 0.00 87 1020.8
20260508143031 49 157 0.0 0.0 0.00 0.00 0.00 88 1020.5
20260508141531 48 173 0.0 2.0 0.00 0.00 0.00 89 1020.3
20260508140037 46 247 0.0 2.0 0.00 0.00 0.00 91 1020.1
20260508134534 45 247 0.0 0.0 0.00 0.00 0.00 91 1020.0
20260508133036 44 247 0.0 0.0 0.00 0.00 0.00 91 1019.8
20260508131607 43 245 0.0 2.0 0.00 0.00 0.00 91 1019.6
20260508130034 43 203 1.0 4.0 0.00 0.00 0.00 90 1019.5
20260508124531 42 169 1.0 4.0 0.00 0.00 0.00 90 1019.5
20260508123034 42 194 0.0 3.0 0.00 0.00 0.00 90 1019.4
20260508121535 42 276 0.0 3.0 0.00 0.00 0.00 90 1019.3
20260508120038 42 221 1.0 5.0 0.00 0.00 0.00 89 1019.2
20260508114652 42 262 1.0 5.0 0.00 0.00 0.00 89 1019.2
20260508113107 42 177 1.0 4.0 0.00 0.00 0.00 89 1019.1
20260508111532 42 214 0.0 4.0 0.00 0.00 0.00 89 1019.0
20260508110107 41 223 0.0 4.0 0.00 0.00 0.00 89 1018.9
20260508104533 41 214 1.0 5.0 0.00 0.00 0.00 88 1018.9
20260508100035 41 210 1.0 4.0 0.00 0.00 0.00 85 1018.9
20260508094533 42 214 1.0 4.0 0.00 0.00 0.00 84 1018.9
20260508093035 42 183 0.0 3.0 0.00 0.00 0.00 83 1018.8
20260508091536 43 157 0.0 2.0 0.00 0.00 0.00 83 1018.8
20260508090142 43 193 1.0 4.0 0.00 0.00 0.00 82 1018.7
20260508084608 43 211 0.0 4.0 0.00 0.00 0.00 80 1018.7
20260508083030 44 217 1.0 5.0 0.00 0.00 0.00 79 1018.7
20260508080106 44 201 0.0 4.0 0.00 0.00 0.00 77 1018.7
20260508074654 44 209 1.0 4.0 0.00 0.00 0.00 76 1018.8
20260508073106 45 219 0.0 3.0 0.00 0.00 0.00 75 1018.7
20260508071532 45 203 0.0 3.0 0.00 0.00 0.00 73 1018.8
20260508063036 46 225 0.0 3.0 0.00 0.00 0.00 69 1018.7
20260508061533 46 204 0.0 3.0 0.00 0.00 0.00 65 1018.7
20260508053034 47 180 0.0 0.0 0.00 0.00 0.00 64 1018.8
20260508051534 48 246 0.0 3.0 0.00 0.00 0.00 63 1018.8
20260508050035 48 185 0.0 2.0 0.00 0.00 0.00 61 1018.8
20260508044536 49 192 0.0 4.0 0.00 0.00 0.00 60 1018.8
20260508041532 52 191 1.0 3.0 0.00 0.00 0.00 55 1018.7
20260508040109 53 204 0.0 3.0 0.00 0.00 0.00 51 1018.5
20260508034537 55 206 1.0 3.0 0.00 0.00 0.00 47 1018.4
20260508033035 56 194 0.0 2.0 0.00 0.00 0.00 43 1018.2
20260508031532 59 202 1.0 4.0 0.00 0.00 0.00 36 1018.2
20260508030036 62 235 0.0 2.0 0.00 0.00 0.00 30 1018.0
20260508024535 63 240 0.0 3.0 0.00 0.00 0.00 28 1018.0
20260508020029 67 323 0.0 3.0 0.00 0.00 0.00 27 1017.6
20260508014531 68 318 1.0 7.0 0.00 0.00 0.00 26 1017.4
20260508013037 69 319 1.0 7.0 0.00 0.00 0.00 25 1017.5
20260508011533 70 313 2.0 7.0 0.00 0.00 0.00 25 1017.6
20260508004606 70 319 1.0 7.0 0.00 0.00 0.00 24 1017.6
20260508003034 71 318 2.0 8.0 0.00 0.00 0.00 25 1017.5
20260507234530 72 315 2.0 9.0 0.00 0.00 0.00 30 1017.4
20260507231532 72 318 2.0 9.0 0.00 0.00 0.00 30 1017.6
20260507230035 72 308 2.0 8.0 0.00 0.00 0.00 31 1017.7
20260507224530 72 328 2.0 8.0 0.00 0.00 0.00 32 1017.8
20260507223033 72 323 2.0 7.0 0.00 0.00 0.00 32 1017.9
20260507221607 72 321 2.0 8.0 0.00 0.00 0.00 33 1018.1
20260507220037 72 323 2.0 7.0 0.00 0.00 0.00 35 1018.2
20260507214530 72 327 1.0 8.0 0.00 0.00 0.00 37 1018.4
20260507213036 72 316 2.0 8.0 0.00 0.00 0.00 41 1018.5
20260507210035 73 318 2.0 6.0 0.00 0.00 0.00 40 1018.7
20260507204535 73 327 1.0 6.0 0.00 0.00 0.00 41 1018.8
20260507203035 73 321 1.0 6.0 0.00 0.00 0.00 42 1019.0
20260507201534 72 320 2.0 8.0 0.00 0.00 0.00 43 1019.1
20260507200037 71 314 2.0 8.0 0.00 0.00 0.00 46 1019.3
20260507191529 69 327 2.0 8.0 0.00 0.00 0.00 48 1019.7
20260507190034 69 328 2.0 7.0 0.00 0.00 0.00 50 1019.9
20260507184535 66 347 3.0 7.0 0.00 0.00 0.00 52 1020.3
20260507181532 65 345 2.0 8.0 0.00 0.00 0.00 52 1020.4
20260507180034 65 30 3.0 7.0 0.00 0.00 0.00 51 1020.5
20260507173148 65 44 1.0 6.0 0.00 0.00 0.00 55 1020.9
20260507171534 64 41 2.0 6.0 0.00 0.00 0.00 55 1021.0
20260507170032 63 54 0.0 6.0 0.00 0.00 0.00 59 1021.0
20260507164534 61 341 1.0 6.0 0.00 0.00 0.00 62 1021.2
20260507163031 61 328 2.0 6.0 0.00 0.00 0.00 64 1021.2
20260507161643 60 334 2.0 7.0 0.00 0.00 0.00 66 1021.3
20260507160032 59 335 2.0 6.0 0.00 0.00 0.00 67 1021.5
20260507154531 60 337 2.0 7.0 0.00 0.00 0.00 67 1021.6
20260507153107 59 338 1.0 4.0 0.00 0.00 0.00 69 1021.6